Temperature
13 13 13 13 13 13 13 13 12 12 12 12 12 12 12 12 12 12 11 11 11 11 11 11 11 11 11 11 11 11 11 11 11 11 11 11 11 10
13 13 13 13 13 13 13 13 12 12 12 12 12 12 12 12 12 12 11 11 11 11 11 11 11 11 11 11 11 11 11 11 11 11 11 11 10 10
13 13 13 13 13 13 13 12 12 12 12 12 12 12 12 12 12 11 11 11 11 11 11 11 11 11 11 11 11 11 10 11 11 11 11 10 10 10
12 12 12 12 13 12 12 12 12 12 12 12 12 12 12 12 11 11 11 11 11 11 11 11 11 11 10 10 10 10 10 10 10 10 10 10 10 10
12 12 12 12 12 12 12 12 12 12 12 12 12 12 11 11 11 11 11 11 11 11 11 11 10 10 10 10 10 10 10 10 10 10 10 10 10 10
12 12 12 12 12 12 12 12 12 12 11 11 11 11 11 11 11 11 11 10 10 10 10 10 10 10 10 10 10 10 10 10 10 10 10 10 10 10
12 12 12 11 11 11 11 11 11 11 11 11 11 11 11 11 10 10 10 10 10 10 10 10 10 10 10 10 10 10 10 10 10 10 10 10 10 10
12 12 11 11 11 11 11 11 11 11 11 11 11 11 11 11 10 10 10 10 10 10 10 10 10 10 10 10 9 9 9 9 9 9 9 9 9 9
11 11 11 11 11 11 11 11 11 11 10 10 10 10 10 10 10 10 10 10 10 9 9 9 9 9 9 9 9 9 9 9 9 9 9 9 9 9
11 11 11 11 11 11 11 11 11 10 10 10 10 10 10 10 10 10 9 9 9 9 9 9 9 9 9 9 9 9 9 9 9 9 8 8 8 8
11 11 11 11 11 10 10 10 10 10 10 10 10 10 10 9 9 9 9 9 9 9 9 9 9 9 9 9 9 9 9 8 8 8 8 8 8 8
11 11 11 10 10 10 10 10 10 10 10 10 10 10 9 9 9 9 9 9 9 9 9 9 9 8 8 8 8 8 8 8 8 8 8 8 8 8
11 11 11 10 10 10 10 10 10 10 10 10 9 9 9 9 9 9 8 8 8 8 8 8 8 8 8 8 8 8 8 8 8 8 8 7 7 7
10 10 10 10 10 10 10 10 9 9 9 9 9 9 9 9 9 8 8 8 8 8 8 8 8 8 8 7 7 7 7 7 7 7 7 7 7 7
10 10 10 10 10 9 9 9 9 9 9 9 9 9 9 8 8 8 8 8 8 8 7 7 7 7 7 7 7 7 7 7 7 7 7 7 7 7
9 9 9 9 9 9 9 9 9 9 8 8 8 8 8 8 8 8 8 8 7 7 7 7 7 7 7 7 7 7 6 6 7 6 6 6 6 6
9 9 9 9 9 9 9 9 8 8 8 8 8 8 8 8 8 7 7 7 7 7 7 7 7 6 6 6 6 6 6 6 6 6 6 6 6 6
8 8 8 8 8 8 8 8 8 8 8 8 8 7 7 7 7 7 7 7 7 7 6 6 6 6 6 6 6 6 6 6 6 5 5 5 6 6
8 8 8 8 8 8 8 8 8 7 7 7 7 7 7 7 7 7 6 6 6 6 6 6 6 5 5 5 6 6 5 5 5 5 5 5 5 5
7 7 7 7 7 7 7 7 7 7 7 7 7 7 6 6 6 6 6 6 6 6 6 6 5 5 5 5 5 5 5 5 4 4 4 4 4 5
7 7 7 7 7 7 7 7 6 7 7 7 6 6 6 6 6 6 6 6 5 5 5 5 5 5 4 4 4 4 5 4 4 4 4 4 4 4
6 6 6 6 6 6 6 6 6 6 6 6 6 6 6 6 6 6 5 5 5 5 5 5 4 4 4 4 4 4 4 4 4 3 3 3 3 3
6 5 6 6 6 6 6 6 5 5 5 5 5 5 5 5 5 5 5 5 5 4 4 4 4 4 4 3 3 3 3 3 3 3 3 3 3 3
Wind_Speed
4 4 3 3 3 3 3 4 4 2 3 3 2 2 3 3 3 2 1 1 1 1 1 2 2 2 2 2 2 2 3 2 3 2 2 2 2 3
3 4 3 2 2 3 3 3 3 4 3 3 3 2 2 2 3 2 3 2 1 1 0 1 1 1 1 2 2 2 2 2 2 2 2 2 2 2
3 4 4 3 2 3 3 3 3 3 3 2 1 1 1 1 1 2 2 2 2 1 1 1 0 0 0 0 0 1 1 1 1 1 1 1 1 1
4 3 3 2 3 3 3 4 3 3 3 3 1 1 2 2 1 1 1 2 2 2 2 2 2 1 1 1 1 1 1 1 0 0 0 1 1 1
4 4 4 3 3 3 3 3 3 3 3 3 2 1 1 1 1 1 0 1 1 2 2 3 3 3 2 2 2 2 2 2 1 1 1 1 2 2
5 5 5 5 5 4 4 4 3 3 2 2 2 1 1 1 1 1 1 1 1 1 1 2 2 3 3 3 3 4 4 4 3 3 3 2 2 2
4 5 5 6 7 5 4 4 4 3 3 3 2 1 1 2 2 2 2 1 1 1 0 1 0 1 2 3 4 4 4 4 4 4 4 3 3 2
5 4 4 5 6 7 7 7 7 6 5 4 3 4 4 3 2 3 2 1 2 1 1 1 1 1 2 3 4 4 4 4 4 4 4 4 4 3
6 5 4 4 5 4 5 6 6 7 8 6 5 6 5 5 4 3 3 3 3 2 2 2 1 2 2 3 4 4 5 4 4 4 4 4 4 4
5 6 6 5 5 5 4 3 3 4 6 5 6 6 6 5 6 5 4 3 1 1 2 2 2 2 2 2 3 5 5 5 4 4 4 4 4 4
5 5 6 6 7 7 5 4 3 3 4 6 7 7 6 6 6 4 3 3 2 2 2 2 2 1 1 1 3 3 4 4 4 4 4 4 4 4
3 4 6 7 8 8 6 6 5 5 3 2 2 3 3 5 7 6 5 4 2 2 3 3 2 1 1 1 1 2 2 3 4 5 5 4 4 3
4 4 5 8 8 8 7 6 7 5 4 3 2 2 1 1 2 4 5 5 4 4 4 4 3 2 2 1 1 1 1 2 2 2 4 4 4 4
5 4 5 8 8 8 6 6 7 5 3 3 2 2 2 3 2 3 4 4 4 4 6 5 3 4 3 2 2 1 1 1 1 2 2 3 3 5
4 6 6 7 7 6 6 7 5 4 3 3 4 4 3 3 2 1 1 2 1 0 3 5 4 3 3 4 3 2 1 2 2 2 2 2 2 2
3 3 4 4 4 4 4 3 3 4 4 4 4 3 2 2 2 2 2 2 1 1 1 2 5 4 4 4 4 3 3 2 2 2 2 2 2 4
1 1 1 1 2 2 2 2 2 3 4 3 3 3 2 2 2 2 2 2 2 2 2 1 1 2 2 3 3 4 4 3 3 3 2 3 3 4
1 2 3 3 4 4 4 3 3 4 5 4 4 4 4 4 3 2 2 3 3 3 3 2 1 1 0 1 4 5 4 4 3 3 3 3 4 4
1 3 3 4 4 4 4 5 5 5 4 5 5 5 4 4 3 4 4 3 4 4 3 3 3 3 4 4 3 5 5 3 3 3 3 4 5 5
2 3 4 4 3 4 4 4 4 4 4 5 5 5 5 5 4 4 5 5 5 4 4 3 4 5 6 5 3 3 6 5 4 4 3 3 4 4
3 3 3 3 3 4 4 4 4 4 4 5 5 5 5 5 5 6 5 7 6 5 6 6 6 6 3 2 2 3 3 5 6 4 3 2 3 3
3 3 3 3 3 3 3 3 3 4 4 5 5 5 5 6 6 7 6 6 6 6 6 4 2 3 3 4 5 5 3 2 2 4 4 4 3 4
3 3 3 3 3 2 2 3 3 3 4 4 4 5 5 5 5 5 6 6 5 5 4 3 2 3 4 5 5 4 4 3 2 2 3 5 6 7
Wind_Direction
207 203 201 209 194 189 177 169 166 203 260 258 261 262 249 245 250 238 243 270 329 13 27 36 28 16 34 25 38 42 42 59 57 55 50 50 65 61
207 198 209 213 194 190 189 186 180 180 220 241 237 253 250 249 252 228 225 249 259 284 2 35 43 35 49 46 46 40 37 58 56 48 44 56 60 61
215 204 215 202 193 193 182 180 185 175 208 253 242 254 229 241 267 238 226 218 229 234 252 283 319 330 271 359 23 13 22 36 44 46 45 41 25 19
211 201 218 209 201 199 189 194 198 193 192 222 241 234 232 226 230 243 234 221 222 240 240 245 245 248 247 234 222 265 287 315 357 197 240 271 279 294
204 203 212 196 213 214 201 204 206 200 187 191 217 224 252 219 196 282 287 293 239 249 249 244 241 247 255 247 234 241 259 270 274 241 229 246 263 268
210 211 211 207 215 214 210 208 196 183 175 176 200 215 232 226 170 200 292 305 296 293 268 264 243 244 258 257 247 241 246 252 258 247 232 234 246 253
219 219 220 221 222 214 210 199 184 181 179 182 196 198 213 195 210 200 208 284 292 248 246 313 252 257 268 264 250 242 242 246 249 242 233 236 241 248
221 227 228 229 230 228 226 210 190 184 188 188 199 206 223 214 196 187 180 179 266 244 169 271 133 241 268 259 248 239 239 240 239 239 238 240 238 239
216 221 232 232 223 221 229 226 217 209 195 185 195 214 213 207 184 192 199 201 220 215 167 256 245 252 265 260 245 237 235 234 234 237 238 234 230 233
222 218 220 228 218 202 200 201 215 220 217 206 207 219 220 203 190 195 198 193 223 240 180 224 243 246 278 275 259 241 231 229 231 234 234 237 239 237
231 225 217 221 223 204 189 194 215 247 242 220 217 217 214 201 176 149 154 160 220 240 195 193 218 240 287 294 271 246 232 232 237 237 240 240 237 237
240 238 228 220 217 204 195 192 208 229 214 194 197 214 209 202 196 187 184 184 196 230 205 184 190 172 263 284 304 272 246 248 246 244 246 243 233 216
229 236 232 220 217 212 203 199 211 207 194 184 182 187 177 191 210 202 193 190 197 220 198 177 181 178 191 247 285 276 234 237 238 242 248 243 228 205
231 232 222 211 210 209 207 203 202 197 175 169 180 200 208 220 225 208 193 193 204 212 192 177 184 185 185 216 252 273 262 239 218 231 245 247 239 232
239 226 215 208 205 208 206 197 189 177 169 186 207 222 221 213 181 151 142 144 110 142 195 198 190 189 191 207 218 225 247 257 232 223 223 221 227 222
260 238 219 215 206 203 202 201 191 185 187 201 214 218 189 171 186 188 193 186 193 283 302 221 199 188 201 210 210 225 223 232 236 232 227 240 243 234
219 182 173 190 202 203 197 198 190 188 202 203 199 197 194 199 214 201 190 183 194 217 248 282 136 165 188 190 207 227 230 239 240 225 217 250 262 254
165 209 219 214 213 211 206 209 210 211 212 205 202 202 204 207 212 206 196 195 210 224 225 213 168 104 11 294 223 222 228 238 240 228 215 235 259 265
196 231 227 222 220 217 216 214 219 220 212 206 207 208 206 206 206 209 205 209 220 224 226 203 189 189 217 248 258 215 216 232 229 232 231 233 249 259
231 237 236 231 225 222 223 225 224 214 208 211 211 209 207 207 211 212 210 212 217 221 223 215 210 208 215 226 233 247 222 219 221 234 247 256 264 278
241 247 239 234 232 227 228 230 227 221 216 213 214 213 211 210 217 217 216 215 213 218 223 228 230 216 202 171 227 254 254 227 221 223 224 239 265 273
235 236 237 237 235 231 230 231 232 229 221 221 223 219 217 216 217 216 215 214 217 219 227 232 211 186 191 214 232 241 255 271 249 240 234 221 218 229
236 234 236 237 237 234 227 228 228 233 230 228 229 227 221 223 221 216 215 215 215 217 217 216 209 208 218 223 230 238 245 250 254 263 278 272 257 255
Height
1537 1538 1539 1539 1540 1540 1540 1540 1541 1539 1539 1539 1540 1540 1540 1540 1540 1539 1539 1539 1538 1538 1537 1537 1537 1536 1536 1536 1537 1536 1536 1537 1537 1537 1537 1537 1537 1536
1535 1535 1536 1536 1537 1537 1537 1538 1538 1538 1537 1537 1537 1538 1538 1538 1538 1537 1537 1537 1537 1536 1536 1536 1535 1535 1535 1535 1535 1536 1536 1536 1536 1536 1536 1536 1536 1536
1531 1532 1533 1533 1534 1534 1534 1535 1535 1535 1535 1535 1535 1535 1536 1536 1536 1535 1535 1535 1535 1535 1534 1534 1534 1534 1534 1534 1534 1534 1534 1534 1535 1535 1535 1535 1535 1535
1528 1529 1529 1530 1530 1531 1531 1531 1532 1532 1532 1532 1532 1533 1533 1533 1533 1533 1533 1533 1533 1533 1533 1533 1532 1532 1532 1532 1533 1533 1533 1533 1533 1533 1533 1533 1534 1534
1524 1525 1526 1526 1527 1527 1528 1528 1529 1529 1529 1529 1529 1529 1530 1530 1530 1531 1531 1531 1531 1531 1531 1531 1530 1530 1530 1530 1531 1531 1531 1531 1531 1531 1531 1532 1532 1532
1521 1521 1522 1522 1523 1524 1524 1524 1525 1525 1526 1526 1526 1526 1527 1527 1528 1528 1528 1528 1528 1528 1528 1528 1528 1528 1528 1528 1528 1528 1529 1529 1529 1529 1529 1530 1530 1530
1517 1518 1518 1519 1519 1520 1520 1521 1521 1521 1522 1522 1522 1523 1523 1524 1524 1524 1525 1525 1525 1525 1525 1525 1525 1526 1526 1526 1526 1526 1526 1526 1527 1527 1527 1527 1528 1528
1513 1514 1514 1515 1515 1516 1516 1517 1517 1518 1518 1518 1518 1519 1519 1520 1521 1521 1522 1522 1522 1523 1523 1523 1523 1523 1523 1523 1523 1523 1524 1524 1524 1524 1525 1525 1525 1525
1509 1510 1510 1511 1511 1512 1512 1513 1513 1514 1514 1515 1515 1515 1516 1517 1517 1518 1518 1518 1519 1519 1519 1519 1519 1519 1520 1520 1520 1521 1521 1521 1521 1521 1522 1522 1522 1522
1505 1505 1506 1507 1507 1508 1508 1509 1509 1510 1510 1511 1511 1512 1512 1513 1514 1514 1515 1515 1515 1516 1516 1515 1515 1516 1516 1516 1517 1517 1517 1518 1518 1518 1518 1519 1519 1519
1501 1501 1502 1503 1503 1504 1504 1504 1505 1506 1506 1507 1507 1508 1509 1509 1510 1510 1510 1511 1511 1512 1512 1512 1512 1512 1513 1513 1513 1513 1514 1514 1515 1515 1515 1515 1516 1516
1496 1497 1498 1498 1499 1499 1500 1500 1500 1501 1502 1503 1503 1504 1505 1505 1506 1506 1507 1507 1507 1507 1508 1508 1508 1509 1509 1509 1510 1510 1510 1510 1511 1511 1511 1512 1512 1512
1491 1492 1493 1494 1494 1495 1495 1496 1496 1497 1498 1498 1499 1499 1500 1501 1502 1502 1503 1503 1503 1503 1505 1505 1504 1505 1505 1505 1505 1506 1506 1507 1507 1507 1507 1508 1508 1508
1486 1487 1488 1489 1489 1490 1491 1491 1492 1493 1493 1494 1494 1495 1496 1497 1498 1498 1499 1499 1499 1500 1500 1500 1500 1501 1501 1501 1501 1502 1502 1503 1503 1503 1503 1503 1504 1504
1482 1482 1483 1484 1485 1485 1486 1487 1488 1488 1489 1489 1489 1490 1492 1492 1493 1494 1494 1495 1495 1495 1495 1496 1496 1496 1496 1496 1497 1497 1498 1498 1498 1498 1499 1499 1499 1499
1477 1477 1478 1478 1479 1480 1480 1481 1482 1483 1484 1484 1485 1486 1487 1488 1488 1489 1489 1490 1490 1490 1491 1491 1491 1492 1491 1492 1492 1492 1493 1493 1493 1494 1494 1494 1494 1494
1472 1472 1472 1472 1473 1474 1475 1476 1477 1478 1479 1479 1480 1481 1482 1482 1483 1484 1484 1484 1484 1484 1485 1486 1486 1486 1487 1487 1487 1487 1488 1488 1488 1489 1489 1488 1489 1489
1468 1467 1467 1467 1468 1468 1469 1470 1471 1472 1473 1474 1475 1476 1476 1477 1478 1478 1479 1479 1479 1479 1480 1481 1481 1481 1481 1481 1482 1482 1483 1483 1483 1483 1483 1483 1482 1483
1463 1462 1462 1463 1463 1463 1464 1465 1466 1467 1468 1469 1469 1470 1471 1471 1472 1472 1473 1473 1473 1474 1475 1475 1475 1476 1476 1475 1476 1477 1477 1477 1477 1477 1477 1477 1477 1477
1457 1457 1457 1458 1458 1459 1459 1460 1460 1461 1462 1463 1464 1464 1465 1466 1466 1466 1467 1467 1468 1468 1469 1469 1470 1470 1470 1471 1471 1471 1472 1472 1472 1471 1472 1471 1471 1471
1453 1453 1453 1453 1454 1454 1454 1455 1455 1456 1456 1457 1458 1458 1459 1460 1460 1460 1461 1461 1462 1462 1463 1463 1464 1465 1465 1466 1465 1465 1466 1467 1467 1466 1466 1466 1465 1464
1449 1449 1449 1449 1449 1449 1449 1450 1450 1450 1451 1451 1452 1453 1453 1453 1454 1454 1455 1455 1456 1456 1457 1458 1459 1459 1459 1459 1459 1459 1460 1461 1461 1461 1461 1461 1460 1459
1444 1444 1444 1444 1444 1444 1444 1444 1445 1445 1445 1446 1446 1447 1447 1447 1447 1448 1448 1449 1450 1450 1451 1452 1453 1453 1453 1454 1454 1454 1454 1454 1455 1455 1455 1456 1456 1455